| time (UTC) | temp C | wind direction | speed KPH | gust KPH | rain 1hr cm | rain 24hr cm | rain mn cm | humidity % | barometer mb |
| 20260507142740 | 13 | 172 | 1.6 | 3.2 | 0.00 | 0.00 | 0.00 | 54 | 1019.5 |
| 20260507142237 | 13 | 165 | 4.8 | 8.0 | 0.00 | 0.00 | 0.00 | 53 | 1019.2 |
| 20260507141733 | 13 | 187 | 1.6 | 3.2 | 0.00 | 0.00 | 0.00 | 59 | 1019.5 |
| 20260507141230 | 13 | 175 | 4.8 | 8.0 | 0.00 | 0.00 | 0.00 | 57 | 1019.5 |
| 20260507140726 | 12 | 121 | 1.6 | 4.8 | 0.00 | 0.00 | 0.00 | 57 | 1019.5 |
| 20260507140224 | 12 | 179 | 3.2 | 9.7 | 0.00 | 0.00 | 0.00 | 57 | 1019.4 |
| 20260507135721 | 12 | 127 | 1.6 | 3.2 | 0.00 | 0.00 | 0.00 | 66 | 1019.4 |
| 20260507135218 | 12 | 170 | 3.2 | 3.2 | 0.00 | 0.00 | 0.00 | 67 | 1019.6 |
| 20260507134714 | 11 | 177 | 0.0 | 9.7 | 0.00 | 0.00 | 0.00 | 67 | 1019.4 |
| 20260507134210 | 11 | 181 | 3.2 | 4.8 | 0.00 | 0.00 | 0.00 | 66 | 1019.5 |
| 20260507133706 | 11 | 169 | 1.6 | 3.2 | 0.00 | 0.00 | 0.00 | 67 | 1019.5 |
| 20260507133204 | 11 | 165 | 0.0 | 1.6 | 0.00 | 0.00 | 0.00 | 68 | 1019.4 |
| 20260507132701 | 11 | 163 | 1.6 | 4.8 | 0.00 | 0.00 | 0.00 | 66 | 1019.5 |
| 20260507132157 | 10 | 172 | 3.2 | 3.2 | 0.00 | 0.00 | 0.00 | 67 | 1019.4 |
| 20260507131654 | 10 | 159 | 0.0 | 0.0 | 0.00 | 0.00 | 0.00 | 71 | 1019.3 |
| 20260507131152 | 10 | 165 | 1.6 | 3.2 | 0.00 | 0.00 | 0.00 | 70 | 1019.5 |
| 20260507130648 | 10 | 165 | 0.0 | 1.6 | 0.00 | 0.00 | 0.00 | 71 | 1019.5 |
| 20260507130146 | 9 | 165 | 0.0 | 1.6 | 0.00 | 0.00 | 0.00 | 74 | 1019.3 |
| 20260507125645 | 8 | 162 | 0.0 | 0.0 | 0.00 | 0.00 | 0.00 | 75 | 1019.3 |
| 20260507125142 | 8 | 161 | 0.0 | 1.6 | 0.00 | 0.00 | 0.00 | 75 | 1019.3 |
| 20260507124638 | 7 | 172 | 0.0 | 0.0 | 0.00 | 0.00 | 0.00 | 77 | 1019.3 |
| 20260507124136 | 7 | 176 | 1.6 | 3.2 | 0.00 | 0.00 | 0.00 | 76 | 1019.2 |
| 20260507123634 | 8 | 170 | 0.0 | 1.6 | 0.00 | 0.00 | 0.00 | 78 | 1019.4 |
| 20260507123131 | 8 | 173 | 0.0 | 1.6 | 0.00 | 0.00 | 0.00 | 78 | 1019.0 |
| 20260507122626 | 8 | 162 | 0.0 | 0.0 | 0.00 | 0.00 | 0.00 | 79 | 1019.2 |
| 20260507122121 | 8 | 161 | 0.0 | 0.0 | 0.00 | 0.00 | 0.00 | 81 | 1019.2 |
| 20260507121618 | 7 | 164 | 0.0 | 0.0 | 0.00 | 0.00 | 0.00 | 84 | 1019.1 |
| 20260507121113 | 6 | 153 | 0.0 | 0.0 | 0.00 | 0.00 | 0.00 | 86 | 1019.2 |
| 20260507120609 | 5 | 164 | 0.0 | 1.6 | 0.00 | 0.00 | 0.00 | 88 | 1019.1 |
| 20260507120106 | 5 | 173 | 0.0 | 0.0 | 0.00 | 0.00 | 0.00 | 90 | 1018.9 |
| 20260507115603 | 5 | 171 | 0.0 | 0.0 | 0.00 | 0.00 | 0.00 | 91 | 1019.1 |
| 20260507115059 | 5 | 170 | 0.0 | 0.0 | 0.00 | 0.00 | 0.00 | 91 | 1019.1 |
| 20260507114554 | 5 | 170 | 0.0 | 0.0 | 0.00 | 0.00 | 0.00 | 92 | 1019.0 |
| 20260507114052 | 5 | 170 | 0.0 | 0.0 | 0.00 | 0.00 | 0.00 | 93 | 1019.1 |
| 20260507113549 | 5 | 170 | 0.0 | 0.0 | 0.00 | 0.00 | 0.00 | 93 | 1018.8 |
| 20260507113046 | 5 | 161 | 0.0 | 0.0 | 0.00 | 0.00 | 0.00 | 93 | 1018.8 |
| 20260507112544 | 5 | 161 | 0.0 | 0.0 | 0.00 | 0.00 | 0.00 | 93 | 1018.7 |
| 20260507112040 | 5 | 161 | 0.0 | 0.0 | 0.00 | 0.00 | 0.00 | 94 | 1018.4 |
| 20260507111538 | 5 | 161 | 0.0 | 0.0 | 0.00 | 0.00 | 0.00 | 94 | 1018.6 |
| 20260507111034 | 5 | 161 | 0.0 | 0.0 | 0.00 | 0.00 | 0.00 | 93 | 1018.2 |
| 20260507110531 | 5 | 161 | 0.0 | 0.0 | 0.00 | 0.00 | 0.00 | 93 | 1018.5 |
| 20260507110027 | 5 | 161 | 0.0 | 0.0 | 0.00 | 0.00 | 0.00 | 92 | 1018.4 |
| 20260507105524 | 5 | 161 | 0.0 | 0.0 | 0.00 | 0.00 | 0.00 | 92 | 1018.6 |
| 20260507105020 | 5 | 161 | 0.0 | 0.0 | 0.00 | 0.00 | 0.00 | 92 | 1018.4 |
| 20260507104518 | 5 | 161 | 0.0 | 0.0 | 0.00 | 0.00 | 0.00 | 92 | 1018.7 |
| 20260507104015 | 5 | 161 | 0.0 | 0.0 | 0.00 | 0.00 | 0.00 | 93 | 1018.4 |
| 20260507103510 | 5 | 161 | 0.0 | 0.0 | 0.00 | 0.00 | 0.00 | 93 | 1018.4 |
| 20260507103007 | 5 | 161 | 0.0 | 0.0 | 0.00 | 0.00 | 0.00 | 94 | 1018.5 |
| 20260507102504 | 5 | 161 | 0.0 | 0.0 | 0.00 | 0.00 | 0.00 | 94 | 1018.7 |
| 20260507102000 | 5 | 161 | 0.0 | 0.0 | 0.00 | 0.00 | 0.00 | 94 | 1018.6 |
| 20260507101455 | 5 | 161 | 0.0 | 0.0 | 0.00 | 0.00 | 0.00 | 94 | 1018.4 |
| 20260507100952 | 5 | 160 | 0.0 | 0.0 | 0.00 | 0.00 | 0.00 | 95 | 1018.5 |
| 20260507100449 | 4 | 160 | 0.0 | 0.0 | 0.00 | 0.00 | 0.00 | 95 | 1018.3 |
| 20260507095947 | 4 | 161 | 0.0 | 0.0 | 0.00 | 0.00 | 0.00 | 95 | 1018.3 |
| 20260507095445 | 4 | 161 | 0.0 | 0.0 | 0.00 | 0.00 | 0.00 | 96 | 1018.4 |
| 20260507094941 | 3 | 161 | 0.0 | 0.0 | 0.00 | 0.00 | 0.00 | 96 | 1018.6 |
| 20260507094437 | 3 | 153 | 0.0 | 0.0 | 0.00 | 0.00 | 0.00 | 97 | 1018.9 |
| 20260507093934 | 3 | 152 | 0.0 | 0.0 | 0.00 | 0.00 | 0.00 | 97 | 1018.7 |
| 20260507093432 | 3 | 152 | 0.0 | 0.0 | 0.00 | 0.00 | 0.00 | 97 | 1018.6 |
| 20260507092931 | 3 | 151 | 0.0 | 0.0 | 0.00 | 0.00 | 0.00 | 97 | 1018.7 |
| 20260507092426 | 2 | 150 | 0.0 | 0.0 | 0.00 | 0.00 | 0.00 | 96 | 1018.5 |
| 20260507091923 | 2 | 150 | 0.0 | 0.0 | 0.00 | 0.00 | 0.00 | 96 | 1018.8 |
| 20260507091420 | 3 | 150 | 0.0 | 0.0 | 0.00 | 0.00 | 0.00 | 96 | 1018.6 |
| 20260507090915 | 2 | 150 | 0.0 | 0.0 | 0.00 | 0.00 | 0.00 | 96 | 1018.6 |
| 20260507090412 | 2 | 150 | 0.0 | 0.0 | 0.00 | 0.00 | 0.00 | 96 | 1018.4 |
| 20260507085909 | 2 | 150 | 0.0 | 0.0 | 0.00 | 0.00 | 0.00 | 96 | 1018.5 |
| 20260507085406 | 3 | 150 | 0.0 | 0.0 | 0.00 | 0.00 | 0.00 | 96 | 1018.5 |
| 20260507084903 | 3 | 150 | 0.0 | 0.0 | 0.00 | 0.00 | 0.00 | 96 | 1018.3 |
| 20260507084359 | 3 | 150 | 0.0 | 0.0 | 0.00 | 0.00 | 0.00 | 96 | 1018.4 |
| 20260507083857 | 3 | 150 | 0.0 | 0.0 | 0.00 | 0.00 | 0.00 | 95 | 1018.3 |
| 20260507083353 | 3 | 150 | 0.0 | 0.0 | 0.00 | 0.00 | 0.00 | 95 | 1018.2 |
| 20260507082849 | 3 | 150 | 0.0 | 0.0 | 0.00 | 0.00 | 0.00 | 95 | 1018.3 |
| 20260507082345 | 3 | 150 | 0.0 | 0.0 | 0.00 | 0.00 | 0.00 | 95 | 1018.4 |
| 20260507081843 | 3 | 150 | 0.0 | 0.0 | 0.00 | 0.00 | 0.00 | 95 | 1018.1 |
| 20260507081338 | 3 | 150 | 0.0 | 0.0 | 0.00 | 0.00 | 0.00 | 95 | 1018.4 |
| 20260507080836 | 3 | 150 | 0.0 | 0.0 | 0.00 | 0.00 | 0.00 | 95 | 1018.4 |
| 20260507080331 | 3 | 150 | 0.0 | 0.0 | 0.00 | 0.00 | 0.00 | 95 | 1018.3 |
| 20260507075827 | 3 | 150 | 0.0 | 0.0 | 0.00 | 0.00 | 0.00 | 94 | 1018.3 |
| 20260507075323 | 3 | 150 | 0.0 | 0.0 | 0.00 | 0.00 | 0.00 | 94 | 1018.5 |
| 20260507074820 | 3 | 150 | 0.0 | 0.0 | 0.00 | 0.00 | 0.00 | 93 | 1018.5 |
| 20260507074317 | 3 | 150 | 0.0 | 0.0 | 0.00 | 0.00 | 0.00 | 93 | 1018.5 |
| 20260507073814 | 3 | 150 | 0.0 | 0.0 | 0.00 | 0.00 | 0.00 | 93 | 1018.6 |
| 20260507073311 | 3 | 150 | 0.0 | 0.0 | 0.00 | 0.00 | 0.00 | 92 | 1018.6 |
| 20260507072808 | 3 | 150 | 0.0 | 0.0 | 0.00 | 0.00 | 0.00 | 92 | 1018.7 |
| 20260507072307 | 3 | 150 | 0.0 | 0.0 | 0.00 | 0.00 | 0.00 | 92 | 1018.6 |
| 20260507071803 | 4 | 150 | 0.0 | 0.0 | 0.00 | 0.00 | 0.00 | 91 | 1019.0 |
| 20260507071259 | 4 | 150 | 0.0 | 0.0 | 0.00 | 0.00 | 0.00 | 92 | 1018.7 |
| 20260507070756 | 4 | 150 | 0.0 | 0.0 | 0.00 | 0.00 | 0.00 | 91 | 1018.8 |
| 20260507070253 | 4 | 150 | 0.0 | 0.0 | 0.00 | 0.00 | 0.00 | 91 | 1018.9 |
| 20260507065750 | 4 | 150 | 0.0 | 0.0 | 0.00 | 0.00 | 0.00 | 91 | 1019.2 |
| 20260507065247 | 4 | 150 | 0.0 | 0.0 | 0.00 | 0.00 | 0.00 | 91 | 1019.0 |
| 20260507064744 | 4 | 150 | 0.0 | 0.0 | 0.00 | 0.00 | 0.00 | 90 | 1018.9 |
| 20260507064243 | 4 | 150 | 0.0 | 0.0 | 0.00 | 0.00 | 0.00 | 89 | 1018.9 |
| 20260507063740 | 4 | 150 | 0.0 | 0.0 | 0.00 | 0.00 | 0.00 | 88 | 1019.0 |
| 20260507063236 | 4 | 150 | 0.0 | 0.0 | 0.00 | 0.00 | 0.00 | 88 | 1018.9 |
| 20260507062733 | 5 | 150 | 0.0 | 0.0 | 0.00 | 0.00 | 0.00 | 87 | 1019.0 |
| 20260507062231 | 5 | 150 | 0.0 | 0.0 | 0.00 | 0.00 | 0.00 | 86 | 1018.8 |
| 20260507061729 | 5 | 150 | 0.0 | 0.0 | 0.00 | 0.00 | 0.00 | 86 | 1018.8 |
| 20260507061227 | 5 | 150 | 0.0 | 0.0 | 0.00 | 0.00 | 0.00 | 85 | 1018.9 |
| 20260507060724 | 5 | 150 | 0.0 | 0.0 | 0.00 | 0.00 | 0.00 | 84 | 1018.8 |
| 20260507060221 | 5 | 150 | 0.0 | 0.0 | 0.00 | 0.00 | 0.00 | 84 | 1019.0 |
| 20260507055716 | 5 | 150 | 0.0 | 0.0 | 0.00 | 0.00 | 0.00 | 83 | 1018.9 |
| 20260507055212 | 5 | 150 | 0.0 | 0.0 | 0.00 | 0.00 | 0.00 | 83 | 1019.0 |
| 20260507054709 | 5 | 150 | 0.0 | 0.0 | 0.00 | 0.00 | 0.00 | 81 | 1018.9 |
| 20260507054206 | 6 | 150 | 0.0 | 0.0 | 0.00 | 0.00 | 0.00 | 81 | 1019.0 |
| 20260507053703 | 6 | 150 | 0.0 | 0.0 | 0.00 | 0.00 | 0.00 | 81 | 1018.9 |
| 20260507053201 | 6 | 150 | 0.0 | 0.0 | 0.00 | 0.00 | 0.00 | 80 | 1019.1 |
| 20260507052700 | 6 | 150 | 0.0 | 0.0 | 0.00 | 0.00 | 0.00 | 80 | 1018.8 |
| 20260507052155 | 6 | 150 | 0.0 | 0.0 | 0.00 | 0.00 | 0.00 | 79 | 1019.0 |
| 20260507051653 | 6 | 150 | 0.0 | 0.0 | 0.00 | 0.00 | 0.00 | 77 | 1019.0 |
| 20260507051149 | 6 | 150 | 0.0 | 0.0 | 0.00 | 0.00 | 0.00 | 77 | 1018.7 |
| 20260507050647 | 6 | 150 | 0.0 | 0.0 | 0.00 | 0.00 | 0.00 | 76 | 1018.7 |
| 20260507050143 | 6 | 150 | 0.0 | 0.0 | 0.00 | 0.00 | 0.00 | 76 | 1018.5 |
| 20260507045640 | 7 | 150 | 0.0 | 0.0 | 0.00 | 0.00 | 0.00 | 75 | 1018.7 |
| 20260507045137 | 7 | 150 | 0.0 | 0.0 | 0.00 | 0.00 | 0.00 | 74 | 1018.6 |
| 20260507044634 | 7 | 150 | 0.0 | 0.0 | 0.00 | 0.00 | 0.00 | 73 | 1018.5 |
| 20260507044126 | 7 | 150 | 0.0 | 0.0 | 0.00 | 0.00 | 0.00 | 72 | 1018.8 |
| 20260507043621 | 8 | 148 | 0.0 | 0.0 | 0.00 | 0.00 | 0.00 | 71 | 1018.7 |
| 20260507043119 | 8 | 144 | 0.0 | 0.0 | 0.00 | 0.00 | 0.00 | 69 | 1018.7 |
| 20260507042614 | 8 | 146 | 0.0 | 0.0 | 0.00 | 0.00 | 0.00 | 69 | 1018.6 |
| 20260507042109 | 8 | 128 | 1.6 | 1.6 | 0.00 | 0.00 | 0.00 | 68 | 1018.5 |
| 20260507041606 | 8 | 143 | 0.0 | 1.6 | 0.00 | 0.00 | 0.00 | 68 | 1018.7 |
| 20260507041103 | 8 | 139 | 0.0 | 1.6 | 0.00 | 0.00 | 0.00 | 69 | 1018.6 |
| 20260507040600 | 8 | 115 | 1.6 | 1.6 | 0.00 | 0.00 | 0.00 | 71 | 1018.5 |
| 20260507040056 | 8 | 153 | 0.0 | 0.0 | 0.00 | 0.00 | 0.00 | 73 | 1018.7 |
| 20260507035552 | 8 | 154 | 0.0 | 0.0 | 0.00 | 0.00 | 0.00 | 73 | 1018.6 |
| 20260507035049 | 8 | 154 | 0.0 | 0.0 | 0.00 | 0.00 | 0.00 | 72 | 1018.4 |
| 20260507034545 | 8 | 154 | 0.0 | 0.0 | 0.00 | 0.00 | 0.00 | 70 | 1018.3 |
| 20260507034043 | 8 | 154 | 0.0 | 0.0 | 0.00 | 0.00 | 0.00 | 69 | 1018.4 |
| 20260507033541 | 8 | 154 | 0.0 | 0.0 | 0.00 | 0.00 | 0.00 | 68 | 1018.5 |
| 20260507033038 | 9 | 154 | 0.0 | 0.0 | 0.00 | 0.00 | 0.00 | 67 | 1018.4 |
| 20260507032535 | 10 | 154 | 0.0 | 0.0 | 0.00 | 0.00 | 0.00 | 66 | 1018.3 |
| 20260507032031 | 10 | 147 | 0.0 | 0.0 | 0.00 | 0.00 | 0.00 | 64 | 1018.4 |
| 20260507031527 | 10 | 149 | 0.0 | 1.6 | 0.00 | 0.00 | 0.00 | 64 | 1018.2 |
| 20260507031025 | 10 | 153 | 0.0 | 0.0 | 0.00 | 0.00 | 0.00 | 63 | 1018.3 |
| 20260507030522 | 10 | 134 | 0.0 | 1.6 | 0.00 | 0.00 | 0.00 | 63 | 1018.2 |
| 20260507030020 | 10 | 135 | 0.0 | 1.6 | 0.00 | 0.00 | 0.00 | 63 | 1018.0 |
| 20260507025516 | 10 | 150 | 0.0 | 0.0 | 0.00 | 0.00 | 0.00 | 63 | 1017.9 |
| 20260507025014 | 10 | 111 | 0.0 | 1.6 | 0.00 | 0.00 | 0.00 | 61 | 1018.1 |
| 20260507024512 | 11 | 158 | 0.0 | 3.2 | 0.00 | 0.00 | 0.00 | 62 | 1018.0 |
| 20260507024008 | 11 | 112 | 1.6 | 1.6 | 0.00 | 0.00 | 0.00 | 61 | 1017.9 |
| 20260507023504 | 11 | 127 | 0.0 | 1.6 | 0.00 | 0.00 | 0.00 | 62 | 1018.0 |
| 20260507023001 | 11 | 82 | 1.6 | 1.6 | 0.00 | 0.00 | 0.00 | 62 | 1018.2 |
| 20260507022458 | 11 | 148 | 0.0 | 0.0 | 0.00 | 0.00 | 0.00 | 62 | 1018.3 |
| 20260507021953 | 11 | 139 | 0.0 | 1.6 | 0.00 | 0.00 | 0.00 | 62 | 1017.9 |
| 20260507021449 | 11 | 146 | 0.0 | 0.0 | 0.00 | 0.00 | 0.00 | 62 | 1017.8 |
| 20260507020947 | 11 | 152 | 0.0 | 0.0 | 0.00 | 0.00 | 0.00 | 61 | 1018.2 |
| 20260507020444 | 11 | 152 | 0.0 | 0.0 | 0.00 | 0.00 | 0.00 | 60 | 1017.9 |
| 20260507015940 | 11 | 152 | 0.0 | 0.0 | 0.00 | 0.00 | 0.00 | 59 | 1017.6 |
| 20260507015439 | 12 | 148 | 0.0 | 0.0 | 0.00 | 0.00 | 0.00 | 58 | 1017.7 |
| 20260507014935 | 12 | 148 | 0.0 | 0.0 | 0.00 | 0.00 | 0.00 | 57 | 1017.6 |
| 20260507014432 | 12 | 109 | 1.6 | 1.6 | 0.00 | 0.00 | 0.00 | 57 | 1017.5 |
| 20260507013928 | 12 | 141 | 0.0 | 1.6 | 0.00 | 0.00 | 0.00 | 57 | 1017.5 |
| 20260507013425 | 12 | 150 | 0.0 | 0.0 | 0.00 | 0.00 | 0.00 | 57 | 1017.3 |
| 20260507012923 | 12 | 156 | 0.0 | 1.6 | 0.00 | 0.00 | 0.00 | 57 | 1017.5 |
| 20260507012419 | 12 | 29 | 3.2 | 8.0 | 0.00 | 0.00 | 0.00 | 55 | 1017.5 |
| 20260507011911 | 12 | 149 | 0.0 | 1.6 | 0.00 | 0.00 | 0.00 | 56 | 1017.3 |
| 20260507011408 | 13 | 141 | 0.0 | 3.2 | 0.00 | 0.00 | 0.00 | 56 | 1017.4 |
| 20260507010907 | 13 | 30 | 3.2 | 4.8 | 0.00 | 0.00 | 0.00 | 54 | 1017.3 |
| 20260507010402 | 13 | 138 | 0.0 | 3.2 | 0.00 | 0.00 | 0.00 | 55 | 1017.1 |
| 20260507005900 | 13 | 156 | 1.6 | 1.6 | 0.00 | 0.00 | 0.00 | 54 | 1017.1 |
| 20260507005356 | 13 | 124 | 1.6 | 1.6 | 0.00 | 0.00 | 0.00 | 54 | 1017.3 |
| 20260507004853 | 13 | 27 | 3.2 | 8.0 | 0.00 | 0.00 | 0.00 | 54 | 1016.8 |
| 20260507004350 | 13 | 80 | 1.6 | 4.8 | 0.00 | 0.00 | 0.00 | 53 | 1017.0 |
| 20260507003850 | 13 | 51 | 3.2 | 4.8 | 0.00 | 0.00 | 0.00 | 52 | 1017.0 |
| 20260507003343 | 14 | 21 | 4.8 | 4.8 | 0.00 | 0.00 | 0.00 | 51 | 1016.8 |
| 20260507002838 | 14 | 70 | 3.2 | 4.8 | 0.00 | 0.00 | 0.00 | 51 | 1016.8 |
| 20260507002335 | 14 | 51 | 1.6 | 4.8 | 0.00 | 0.00 | 0.00 | 50 | 1016.8 |
| 20260507001832 | 14 | 52 | 3.2 | 11.3 | 0.00 | 0.00 | 0.00 | 50 | 1016.7 |
| 20260507001329 | 15 | 144 | 3.2 | 4.8 | 0.00 | 0.00 | 0.00 | 49 | 1016.5 |
| 20260507000825 | 15 | 115 | 0.0 | 1.6 | 0.00 | 0.00 | 0.00 | 51 | 1016.7 |
| 20260507000321 | 15 | 347 | 3.2 | 9.7 | 0.00 | 0.00 | 0.00 | 50 | 1016.6 |
| 20260506235818 | 15 | 357 | 4.8 | 11.3 | 0.00 | 0.00 | 0.00 | 51 | 1016.6 |
| 20260506235314 | 15 | 4 | 4.8 | 8.0 | 0.00 | 0.00 | 0.00 | 50 | 1016.4 |
| 20260506234810 | 15 | 342 | 1.6 | 8.0 | 0.00 | 0.00 | 0.00 | 50 | 1016.3 |
| 20260506234308 | 15 | 66 | 1.6 | 8.0 | 0.00 | 0.00 | 0.00 | 49 | 1015.9 |
| 20260506233806 | 16 | 7 | 3.2 | 11.3 | 0.00 | 0.00 | 0.00 | 47 | 1015.9 |
| 20260506233256 | 15 | 322 | 4.8 | 9.7 | 0.00 | 0.00 | 0.00 | 46 | 1016.0 |
| 20260506232753 | 15 | 8 | 3.2 | 9.7 | 0.00 | 0.00 | 0.00 | 46 | 1015.9 |
| 20260506232248 | 15 | 28 | 6.4 | 9.7 | 0.00 | 0.00 | 0.00 | 45 | 1015.8 |
| 20260506231745 | 15 | 39 | 1.6 | 8.0 | 0.00 | 0.00 | 0.00 | 45 | 1016.1 |
| 20260506231243 | 15 | 338 | 3.2 | 9.7 | 0.00 | 0.00 | 0.00 | 44 | 1016.0 |
| 20260506230739 | 16 | 303 | 3.2 | 11.3 | 0.00 | 0.00 | 0.00 | 44 | 1016.2 |
| 20260506230236 | 16 | 107 | 0.0 | 3.2 | 0.00 | 0.00 | 0.00 | 48 | 1016.2 |
| 20260506225733 | 15 | 46 | 1.6 | 8.0 | 0.00 | 0.00 | 0.00 | 47 | 1016.1 |
| 20260506225230 | 16 | 3 | 4.8 | 9.7 | 0.00 | 0.00 | 0.00 | 46 | 1016.1 |
| 20260506224726 | 16 | 163 | 4.8 | 8.0 | 0.00 | 0.00 | 0.00 | 46 | 1015.9 |
| 20260506224224 | 16 | 348 | 4.8 | 9.7 | 0.00 | 0.00 | 0.00 | 46 | 1016.0 |
| 20260506223720 | 16 | 345 | 1.6 | 4.8 | 0.00 | 0.00 | 0.00 | 44 | 1016.0 |
| 20260506223215 | 16 | 352 | 3.2 | 8.0 | 0.00 | 0.00 | 0.00 | 46 | 1015.9 |
| 20260506222713 | 16 | 2 | 4.8 | 11.3 | 0.00 | 0.00 | 0.00 | 46 | 1015.9 |
| 20260506222208 | 16 | 15 | 4.8 | 4.8 | 0.00 | 0.00 | 0.00 | 46 | 1015.8 |
| 20260506221707 | 16 | 354 | 1.6 | 8.0 | 0.00 | 0.00 | 0.00 | 46 | 1016.0 |
| 20260506221204 | 16 | 18 | 8.0 | 12.9 | 0.00 | 0.00 | 0.00 | 45 | 1015.8 |
| 20260506220701 | 16 | 335 | 3.2 | 8.0 | 0.00 | 0.00 | 0.00 | 44 | 1015.8 |
| 20260506220156 | 16 | 8 | 3.2 | 4.8 | 0.00 | 0.00 | 0.00 | 47 | 1015.8 |
| 20260506215653 | 16 | 359 | 6.4 | 8.0 | 0.00 | 0.00 | 0.00 | 47 | 1015.8 |
| 20260506215148 | 16 | 69 | 3.2 | 4.8 | 0.00 | 0.00 | 0.00 | 47 | 1016.1 |
| 20260506214645 | 16 | 354 | 4.8 | 11.3 | 0.00 | 0.00 | 0.00 | 45 | 1015.9 |
| 20260506214143 | 16 | 319 | 4.8 | 9.7 | 0.00 | 0.00 | 0.00 | 46 | 1015.9 |
| 20260506213641 | 16 | 350 | 3.2 | 8.0 | 0.00 | 0.00 | 0.00 | 46 | 1015.8 |
| 20260506213138 | 17 | 10 | 8.0 | 9.7 | 0.00 | 0.00 | 0.00 | 45 | 1016.0 |
| 20260506212635 | 16 | 89 | 3.2 | 9.7 | 0.00 | 0.00 | 0.00 | 45 | 1016.0 |
| 20260506212130 | 16 | 208 | 6.4 | 8.0 | 0.00 | 0.00 | 0.00 | 46 | 1016.3 |
| 20260506211626 | 16 | 319 | 4.8 | 9.7 | 0.00 | 0.00 | 0.00 | 45 | 1016.4 |
| 20260506211123 | 16 | 212 | 1.6 | 4.8 | 0.00 | 0.00 | 0.00 | 47 | 1016.5 |
| 20260506210620 | 16 | 334 | 1.6 | 8.0 | 0.00 | 0.00 | 0.00 | 48 | 1016.4 |
| 20260506210116 | 16 | 8 | 4.8 | 8.0 | 0.00 | 0.00 | 0.00 | 47 | 1016.5 |
| 20260506205613 | 16 | 267 | 1.6 | 4.8 | 0.00 | 0.00 | 0.00 | 47 | 1016.4 |
| 20260506205108 | 16 | 18 | 3.2 | 9.7 | 0.00 | 0.00 | 0.00 | 49 | 1016.4 |
| 20260506204606 | 17 | 73 | 0.0 | 4.8 | 0.00 | 0.00 | 0.00 | 52 | 1016.5 |
| 20260506204103 | 16 | 210 | 3.2 | 3.2 | 0.00 | 0.00 | 0.00 | 47 | 1016.3 |
| 20260506203601 | 16 | 317 | 8.0 | 9.7 | 0.00 | 0.00 | 0.00 | 47 | 1016.5 |
| 20260506203057 | 16 | 21 | 8.0 | 11.3 | 0.00 | 0.00 | 0.00 | 49 | 1016.3 |
| 20260506202555 | 17 | 93 | 4.8 | 9.7 | 0.00 | 0.00 | 0.00 | 48 | 1016.7 |
| 20260506202051 | 17 | 323 | 6.4 | 9.7 | 0.00 | 0.00 | 0.00 | 49 | 1016.7 |
| 20260506201549 | 16 | 341 | 1.6 | 8.0 | 0.00 | 0.00 | 0.00 | 47 | 1016.5 |
| 20260506201045 | 16 | 3 | 4.8 | 8.0 | 0.00 | 0.00 | 0.00 | 50 | 1016.8 |
| 20260506200541 | 17 | 357 | 8.0 | 11.3 | 0.00 | 0.00 | 0.00 | 49 | 1016.8 |
| 20260506200038 | 16 | 223 | 3.2 | 3.2 | 0.00 | 0.00 | 0.00 | 49 | 1016.8 |
| 20260506195535 | 16 | 341 | 4.8 | 11.3 | 0.00 | 0.00 | 0.00 | 48 | 1016.8 |
| 20260506195032 | 16 | 58 | 4.8 | 8.0 | 0.00 | 0.00 | 0.00 | 47 | 1017.0 |
| 20260506194529 | 16 | 189 | 1.6 | 8.0 | 0.00 | 0.00 | 0.00 | 51 | 1017.0 |
| 20260506194026 | 17 | 289 | 4.8 | 11.3 | 0.00 | 0.00 | 0.00 | 48 | 1016.8 |
| 20260506193523 | 16 | 352 | 0.0 | 3.2 | 0.00 | 0.00 | 0.00 | 51 | 1017.0 |
| 20260506193020 | 16 | 8 | 6.4 | 11.3 | 0.00 | 0.00 | 0.00 | 52 | 1017.0 |
| 20260506192517 | 16 | 229 | 0.0 | 4.8 | 0.00 | 0.00 | 0.00 | 53 | 1017.3 |
| 20260506192013 | 15 | 149 | 3.2 | 4.8 | 0.00 | 0.00 | 0.00 | 53 | 1017.7 |
| 20260506191510 | 16 | 347 | 1.6 | 8.0 | 0.00 | 0.00 | 0.00 | 54 | 1017.5 |
| 20260506191006 | 15 | 185 | 0.0 | 4.8 | 0.00 | 0.00 | 0.00 | 55 | 1017.6 |
| 20260506190503 | 16 | 304 | 1.6 | 8.0 | 0.00 | 0.00 | 0.00 | 53 | 1017.5 |
| 20260506185959 | 16 | 333 | 6.4 | 8.0 | 0.00 | 0.00 | 0.00 | 53 | 1017.9 |
| 20260506185457 | 15 | 332 | 1.6 | 3.2 | 0.00 | 0.00 | 0.00 | 54 | 1017.9 |
| 20260506184953 | 15 | 31 | 4.8 | 8.0 | 0.00 | 0.00 | 0.00 | 56 | 1017.7 |
| 20260506184451 | 15 | 185 | 1.6 | 8.0 | 0.00 | 0.00 | 0.00 | 60 | 1017.9 |
| 20260506183948 | 16 | 233 | 1.6 | 3.2 | 0.00 | 0.00 | 0.00 | 58 | 1018.1 |
| 20260506183443 | 16 | 192 | 0.0 | 1.6 | 0.00 | 0.00 | 0.00 | 62 | 1018.4 |
| 20260506182941 | 15 | 171 | 1.6 | 3.2 | 0.00 | 0.00 | 0.00 | 62 | 1018.2 |
| 20260506182438 | 14 | 66 | 0.0 | 1.6 | 0.00 | 0.00 | 0.00 | 59 | 1018.7 |
| 20260506181935 | 15 | 3 | 6.4 | 8.0 | 0.00 | 0.00 | 0.00 | 58 | 1018.5 |
| 20260506181433 | 15 | 184 | 0.0 | 4.8 | 0.00 | 0.00 | 0.00 | 61 | 1018.6 |
| 20260506180929 | 14 | 13 | 1.6 | 8.0 | 0.00 | 0.00 | 0.00 | 61 | 1018.7 |
| 20260506180426 | 15 | 337 | 3.2 | 4.8 | 0.00 | 0.00 | 0.00 | 61 | 1018.6 |
| 20260506175923 | 15 | 183 | 0.0 | 1.6 | 0.00 | 0.00 | 0.00 | 66 | 1018.4 |
| 20260506175420 | 14 | 324 | 1.6 | 8.0 | 0.00 | 0.00 | 0.00 | 63 | 1018.2 |
| 20260506174916 | 14 | 342 | 3.2 | 11.3 | 0.00 | 0.00 | 0.00 | 63 | 1018.3 |
| 20260506174414 | 15 | 300 | 4.8 | 4.8 | 0.00 | 0.00 | 0.00 | 62 | 1018.3 |
| 20260506173911 | 14 | 309 | 3.2 | 4.8 | 0.00 | 0.00 | 0.00 | 61 | 1018.5 |
| 20260506173408 | 14 | 52 | 0.0 | 8.0 | 0.00 | 0.00 | 0.00 | 60 | 1018.7 |
| 20260506172859 | 14 | 117 | 0.0 | 3.2 | 0.00 | 0.00 | 0.00 | 63 | 1018.8 |
| 20260506172355 | 14 | 91 | 0.0 | 8.0 | 0.00 | 0.00 | 0.00 | 62 | 1018.7 |
| 20260506171853 | 13 | 122 | 1.6 | 4.8 | 0.00 | 0.00 | 0.00 | 64 | 1018.5 |
| 20260506171350 | 13 | 18 | 1.6 | 3.2 | 0.00 | 0.00 | 0.00 | 64 | 1018.6 |
| 20260506170848 | 13 | 11 | 1.6 | 3.2 | 0.00 | 0.00 | 0.00 | 63 | 1018.5 |
| 20260506170344 | 14 | 169 | 3.2 | 8.0 | 0.00 | 0.00 | 0.00 | 64 | 1018.1 |
| 20260506165843 | 14 | 1 | 4.8 | 8.0 | 0.00 | 0.00 | 0.00 | 63 | 1018.2 |
| 20260506165340 | 14 | 340 | 4.8 | 8.0 | 0.00 | 0.00 | 0.00 | 63 | 1017.9 |
| 20260506164836 | 13 | 186 | 1.6 | 4.8 | 0.00 | 0.00 | 0.00 | 67 | 1018.1 |
| 20260506164333 | 13 | 59 | 3.2 | 8.0 | 0.00 | 0.00 | 0.00 | 64 | 1018.0 |
| 20260506163825 | 13 | 136 | 1.6 | 12.9 | 0.00 | 0.00 | 0.00 | 66 | 1017.7 |
| 20260506163325 | 13 | 26 | 1.6 | 4.8 | 0.00 | 0.00 | 0.00 | 65 | 1017.8 |
| 20260506162821 | 13 | 352 | 4.8 | 4.8 | 0.00 | 0.00 | 0.00 | 62 | 1017.9 |
| 20260506162319 | 14 | 173 | 3.2 | 3.2 | 0.00 | 0.00 | 0.00 | 67 | 1017.9 |
| 20260506161816 | 14 | 173 | 0.0 | 1.6 | 0.00 | 0.00 | 0.00 | 68 | 1017.9 |
| 20260506161313 | 13 | 186 | 3.2 | 4.8 | 0.00 | 0.00 | 0.00 | 66 | 1018.0 |
| 20260506160806 | 13 | 82 | 4.8 | 8.0 | 0.00 | 0.00 | 0.00 | 63 | 1018.0 |
| 20260506160302 | 13 | 269 | 3.2 | 4.8 | 0.00 | 0.00 | 0.00 | 66 | 1017.9 |
| 20260506155801 | 12 | 182 | 1.6 | 4.8 | 0.00 | 0.00 | 0.00 | 70 | 1017.9 |
| 20260506155257 | 12 | 83 | 3.2 | 3.2 | 0.00 | 0.00 | 0.00 | 68 | 1017.6 |
| 20260506153409 | 12 | 252 | 4.8 | 9.7 | 0.00 | 0.00 | 0.00 | 67 | 1017.7 |
| 20260506152907 | 12 | 134 | 1.6 | 4.8 | 0.00 | 0.00 | 0.00 | 72 | 1017.7 |
| 20260506152403 | 11 | 225 | 1.6 | 3.2 | 0.00 | 0.00 | 0.00 | 71 | 1017.5 |
| 20260506151902 | 11 | 343 | 4.8 | 4.8 | 0.00 | 0.00 | 0.00 | 71 | 1017.5 |
| 20260506151358 | 11 | 4 | 1.6 | 1.6 | 0.00 | 0.00 | 0.00 | 72 | 1017.6 |
| 20260506150856 | 11 | 161 | 0.0 | 1.6 | 0.00 | 0.00 | 0.00 | 75 | 1017.9 |
| 20260506150352 | 10 | 308 | 4.8 | 4.8 | 0.00 | 0.00 | 0.00 | 75 | 1018.0 |
| 20260506145849 | 10 | 203 | 1.6 | 4.8 | 0.00 | 0.00 | 0.00 | 74 | 1017.6 |
| 20260506145345 | 10 | 8 | 1.6 | 9.7 | 0.00 | 0.00 | 0.00 | 75 | 1017.9 |
| 20260506144843 | 10 | 325 | 4.8 | 9.7 | 0.00 | 0.00 | 0.00 | 75 | 1018.0 |
| 20260506144339 | 10 | 322 | 3.2 | 9.7 | 0.00 | 0.00 | 0.00 | 76 | 1017.9 |
| 20260506143838 | 10 | 68 | 1.6 | 3.2 | 0.00 | 0.00 | 0.00 | 78 | 1017.6 |
| 20260506143335 | 10 | 55 | 3.2 | 8.0 | 0.00 | 0.00 | 0.00 | 78 | 1017.6 |